QPF
0.00 0.00 0.00 0.00 0.00 0.00 0.00 0.00 0.00 0.00 0.00 0.00 0.00 0.00 0.00 0.00 0.00 0.00 0.00 0.00 0.00 0.00 0.00 0.00 0.00 0.00 0.00 0.00 0.00 0.00 0.00 0.00 0.00 0.00 0.00 0.00 0.00 0.00 0.00 0.00 0.00 0.00 0.00 0.00 0.00
0.00 0.00 0.00 0.00 0.00 0.00 0.00 0.00 0.00 0.00 0.00 0.00 0.00 0.00 0.00 0.00 0.00 0.00 0.00 0.00 0.00 0.00 0.00 0.00 0.00 0.00 0.00 0.00 0.00 0.00 0.00 0.00 0.00 0.00 0.00 0.00 0.00 0.00 0.00 0.00 0.00 0.00 0.00 0.00 0.00
0.00 0.00 0.00 0.00 0.00 0.00 0.00 0.00 0.00 0.00 0.00 0.00 0.00 0.00 0.00 0.00 0.00 0.00 0.00 0.00 0.00 0.00 0.00 0.00 0.00 0.00 0.00 0.00 0.00 0.00 0.00 0.00 0.00 0.00 0.00 0.00 0.00 0.00 0.00 0.00 0.00 0.00 0.00 0.00 0.00
0.00 0.00 0.00 0.00 0.00 0.00 0.00 0.00 0.00 0.00 0.00 0.00 0.00 0.00 0.00 0.00 0.00 0.00 0.00 0.00 0.00 0.00 0.00 0.00 0.00 0.00 0.00 0.00 0.00 0.00 0.00 0.00 0.00 0.00 0.00 0.00 0.00 0.00 0.00 0.00 0.00 0.00 0.00 0.00 0.00
0.00 0.00 0.00 0.00 0.00 0.00 0.00 0.00 0.00 0.00 0.00 0.00 0.00 0.00 0.00 0.00 0.00 0.00 0.00 0.00 0.00 0.00 0.00 0.00 0.00 0.00 0.00 0.00 0.00 0.00 0.00 0.00 0.00 0.00 0.00 0.00 0.00 0.00 0.00 0.00 0.00 0.00 0.00 0.00 0.00
0.00 0.00 0.00 0.00 0.00 0.00 0.00 0.00 0.00 0.00 0.00 0.00 0.00 0.00 0.00 0.00 0.00 0.00 0.00 0.00 0.00 0.00 0.00 0.00 0.00 0.00 0.00 0.00 0.00 0.00 0.00 0.00 0.00 0.00 0.00 0.00 0.00 0.00 0.00 0.00 0.00 0.00 0.00 0.00 0.00
0.00 0.00 0.00 0.00 0.00 0.00 0.00 0.00 0.00 0.00 0.00 0.00 0.00 0.00 0.00 0.00 0.00 0.00 0.00 0.00 0.00 0.00 0.00 0.00 0.00 0.00 0.00 0.00 0.00 0.00 0.00 0.00 0.00 0.00 0.00 0.00 0.00 0.00 0.00 0.00 0.00 0.00 0.00 0.00 0.00
0.00 0.00 0.00 0.00 0.00 0.00 0.00 0.00 0.00 0.00 0.00 0.00 0.00 0.00 0.00 0.00 0.00 0.00 0.00 0.00 0.00 0.00 0.00 0.00 0.00 0.00 0.00 0.00 0.00 0.00 0.00 0.00 0.00 0.00 0.00 0.00 0.00 0.00 0.00 0.00 0.00 0.00 0.00 0.00 0.00
0.00 0.00 0.00 0.00 0.00 0.00 0.00 0.00 0.00 0.00 0.00 0.00 0.00 0.00 0.00 0.00 0.00 0.00 0.00 0.00 0.00 0.00 0.00 0.00 0.00 0.00 0.00 0.00 0.00 0.00 0.00 0.00 0.00 0.00 0.00 0.00 0.00 0.01 0.01 0.00 0.00 0.00 0.00 0.00 0.00
0.00 0.00 0.00 0.00 0.00 0.00 0.00 0.00 0.00 0.00 0.00 0.00 0.00 0.00 0.00 0.00 0.00 0.00 0.00 0.00 0.00 0.00 0.00 0.00 0.00 0.00 0.00 0.00 0.00 0.00 0.00 0.00 0.00 0.00 0.00 0.00 0.00 0.01 0.02 0.01 0.00 0.00 0.00 0.00 0.00
0.00 0.00 0.00 0.00 0.00 0.00 0.00 0.00 0.00 0.00 0.00 0.00 0.00 0.00 0.00 0.00 0.00 0.00 0.00 0.00 0.00 0.00 0.00 0.00 0.00 0.00 0.00 0.00 0.00 0.00 0.00 0.00 0.00 0.00 0.00 0.00 0.00 0.00 0.01 0.00 0.00 0.00 0.00 0.00 0.00
0.00 0.00 0.00 0.00 0.00 0.00 0.00 0.00 0.00 0.00 0.00 0.00 0.00 0.00 0.00 0.00 0.00 0.00 0.00 0.00 0.00 0.00 0.00 0.00 0.00 0.00 0.00 0.00 0.00 0.00 0.00 0.00 0.00 0.00 0.00 0.00 0.00 0.01 0.01 0.00 0.00 0.00 0.00 0.00 0.00
0.00 0.00 0.00 0.00 0.00 0.00 0.00 0.00 0.00 0.00 0.00 0.00 0.00 0.00 0.00 0.00 0.00 0.00 0.00 0.00 0.00 0.00 0.00 0.00 0.00 0.00 0.00 0.00 0.00 0.00 0.00 0.00 0.00 0.00 0.00 0.00 0.00 0.00 0.00 0.00 0.00 0.00 0.00 0.00 0.00
0.00 0.00 0.00 0.00 0.00 0.00 0.00 0.00 0.00 0.00 0.00 0.00 0.00 0.00 0.00 0.00 0.00 0.00 0.00 0.00 0.00 0.00 0.00 0.00 0.00 0.00 0.00 0.00 0.00 0.00 0.00 0.00 0.00 0.00 0.00 0.00 0.01 0.02 0.00 0.00 0.00 0.00 0.00 0.00 0.00
0.00 0.00 0.00 0.00 0.00 0.00 0.00 0.00 0.00 0.00 0.00 0.00 0.00 0.00 0.00 0.00 0.00 0.00 0.00 0.00 0.00 0.00 0.00 0.00 0.00 0.00 0.00 0.00 0.00 0.00 0.00 0.00 0.00 0.00 0.00 0.00 0.00 0.01 0.01 0.00 0.00 0.01 0.00 0.00 0.00
0.00 0.00 0.00 0.00 0.00 0.00 0.00 0.00 0.00 0.00 0.00 0.00 0.00 0.00 0.00 0.00 0.00 0.00 0.00 0.00 0.00 0.00 0.00 0.00 0.00 0.00 0.00 0.00 0.00 0.00 0.00 0.00 0.00 0.00 0.00 0.00 0.00 0.00 0.01 0.01 0.01 0.02 0.00 0.00 0.00
0.00 0.00 0.00 0.00 0.00 0.00 0.00 0.00 0.00 0.00 0.00 0.00 0.00 0.00 0.00 0.00 0.00 0.00 0.00 0.00 0.00 0.00 0.00 0.00 0.00 0.00 0.00 0.00 0.00 0.00 0.00 0.00 0.00 0.00 0.00 0.00 0.00 0.00 0.01 0.08 0.03 0.04 0.00 0.00 0.00
0.00 0.00 0.00 0.00 0.00 0.00 0.00 0.00 0.00 0.00 0.00 0.00 0.00 0.00 0.00 0.00 0.00 0.00 0.00 0.00 0.00 0.00 0.00 0.00 0.00 0.00 0.00 0.00 0.00 0.00 0.00 0.00 0.00 0.00 0.00 0.00 0.00 0.01 0.03 0.05 0.01 0.00 0.00 0.00 0.00
0.00 0.00 0.00 0.00 0.00 0.00 0.00 0.00 0.00 0.00 0.00 0.00 0.00 0.00 0.00 0.00 0.00 0.00 0.00 0.00 0.00 0.00 0.00 0.00 0.00 0.00 0.00 0.00 0.00 0.00 0.00 0.00 0.00 0.00 0.00 0.00 0.00 0.00 0.01 0.00 0.00 0.00 0.00 0.00 0.00
0.00 0.00 0.00 0.00 0.00 0.00 0.00 0.00 0.00 0.00 0.00 0.00 0.00 0.00 0.00 0.00 0.00 0.00 0.00 0.00 0.00 0.00 0.00 0.00 0.00 0.00 0.00 0.00 0.00 0.00 0.00 0.00 0.00 0.00 0.00 0.00 0.00 0.00 0.00 0.00 0.00 0.00 0.00 0.00 0.00
0.00 0.00 0.00 0.00 0.00 0.00 0.00 0.00 0.00 0.00 0.00 0.00 0.00 0.00 0.00 0.00 0.00 0.00 0.00 0.00 0.00 0.00 0.00 0.00 0.00 0.00 0.00 0.00 0.00 0.00 0.00 0.00 0.00 0.00 0.00 0.00 0.00 0.00 0.00 0.00 0.00 0.00 0.00 0.00 0.00
0.00 0.00 0.00 0.00 0.00 0.00 0.00 0.00 0.00 0.00 0.00 0.00 0.00 0.00 0.00 0.00 0.00 0.00 0.00 0.00 0.00 0.00 0.00 0.00 0.00 0.00 0.00 0.00 0.00 0.00 0.00 0.00 0.00 0.00 0.00 0.00 0.00 0.00 0.00 0.00 0.00 0.00 0.00 0.00 0.00
0.00 0.00 0.00 0.00 0.00 0.00 0.00 0.00 0.00 0.00 0.00 0.00 0.00 0.00 0.00 0.00 0.00 0.00 0.00 0.00 0.00 0.00 0.00 0.00 0.00 0.00 0.00 0.00 0.00 0.00 0.00 0.00 0.00 0.00 0.00 0.00 0.00 0.00 0.00 0.00 0.00 0.00 0.00 0.00 0.00
0.00 0.00 0.00 0.00 0.00 0.00 0.00 0.00 0.00 0.00 0.00 0.00 0.00 0.00 0.00 0.00 0.00 0.00 0.00 0.00 0.00 0.00 0.00 0.00 0.00 0.00 0.00 0.00 0.00 0.00 0.00 0.00 0.00 0.00 0.00 0.00 0.00 0.00 0.00 0.00 0.00 0.00 0.00 0.00 0.00
0.00 0.00 0.00 0.00 0.00 0.00 0.00 0.00 0.00 0.00 0.00 0.00 0.00 0.00 0.00 0.00 0.00 0.00 0.00 0.00 0.00 0.00 0.00 0.00 0.00 0.00 0.00 0.00 0.00 0.00 0.00 0.00 0.00 0.00 0.00 0.00 0.00 0.00 0.00 0.00 0.00 0.00 0.00 0.00 0.00
0.00 0.00 0.00 0.00 0.00 0.00 0.00 0.00 0.00 0.00 0.00 0.00 0.00 0.00 0.00 0.00 0.00 0.00 0.00 0.00 0.00 0.00 0.00 0.00 0.00 0.00 0.00 0.00 0.00 0.00 0.00 0.00 0.00 0.00 0.00 0.00 0.00 0.00 0.00 0.00 0.00 0.00 0.00 0.00 0.00
0.00 0.00 0.00 0.00 0.00 0.00 0.00 0.00 0.00 0.01 0.00 0.00 0.00 0.00 0.00 0.00 0.00 0.00 0.00 0.00 0.00 0.00 0.00 0.00 0.00 0.00 0.00 0.00 0.00 0.00 0.00 0.00 0.00 0.00 0.00 0.00 0.00 0.00 0.00 0.00 0.00 0.00 0.00 0.00 0.00
MSLP
1019.37 1019.01 1018.70 1018.40 1018.09 1017.77 1017.41 1017.11 1016.84 1016.63 1016.45 1016.28 1016.14 1015.94 1015.64 1015.30 1014.73 1014.50 1013.64 1011.05 1010.76 1010.53 1010.31 1010.18 1010.01 1010.17 1010.30 1010.54 1010.44 1010.94 1012.13 1012.08 1011.59 1010.53 1009.10 1008.75 1009.05 1010.06 1010.38 1011.11 1012.45 1013.04 1013.65 1014.61 1015.06
1019.45 1019.05 1018.68 1018.29 1017.88 1017.53 1017.23 1017.00 1016.76 1016.53 1016.31 1016.15 1015.99 1015.79 1015.57 1015.27 1014.85 1013.30 1010.17 1009.99 1010.13 1010.17 1010.27 1010.32 1010.31 1010.57 1010.78 1010.62 1010.55 1010.98 1011.96 1010.97 1010.31 1009.39 1008.99 1008.40 1008.79 1009.64 1011.12 1011.71 1013.56 1013.86 1014.50 1014.87 1014.52
1019.61 1019.21 1018.82 1018.34 1017.84 1017.42 1017.01 1016.63 1016.41 1016.28 1016.13 1015.96 1015.78 1015.56 1015.35 1015.11 1014.23 1010.68 1008.86 1009.33 1009.82 1010.06 1010.16 1010.22 1010.37 1010.76 1010.87 1010.50 1010.44 1010.70 1010.73 1009.57 1008.99 1008.47 1008.74 1008.49 1008.56 1009.46 1011.09 1012.12 1012.63 1013.39 1013.98 1014.76 1015.28
1019.73 1019.29 1018.82 1018.30 1017.75 1017.25 1016.84 1016.48 1016.21 1016.02 1015.89 1015.73 1015.54 1015.36 1015.16 1014.87 1012.81 1009.29 1008.83 1009.37 1009.86 1010.06 1010.21 1010.09 1010.43 1010.79 1010.64 1010.38 1009.90 1010.39 1009.22 1009.07 1008.36 1007.88 1008.19 1008.13 1009.14 1010.20 1010.84 1011.93 1012.88 1014.12 1014.86 1015.55 1015.96
1019.87 1019.34 1018.78 1018.26 1017.72 1017.16 1016.69 1016.35 1016.07 1015.84 1015.63 1015.49 1015.34 1015.22 1015.01 1014.12 1011.33 1008.75 1009.13 1009.55 1009.93 1010.06 1010.04 1010.15 1010.38 1010.55 1010.58 1009.84 1009.63 1009.53 1008.54 1007.92 1007.45 1008.03 1008.35 1008.64 1009.97 1011.12 1012.70 1013.42 1014.02 1014.73 1015.49 1016.31 1016.86
1019.80 1019.27 1018.67 1018.05 1017.45 1016.91 1016.44 1016.07 1015.81 1015.60 1015.40 1015.25 1015.20 1015.21 1014.93 1012.83 1008.76 1008.60 1009.02 1009.78 1009.79 1009.90 1009.69 1010.04 1009.82 1009.72 1009.88 1009.44 1009.37 1008.35 1007.92 1007.52 1007.04 1007.40 1007.93 1009.68 1011.91 1011.59 1014.49 1014.50 1015.28 1016.07 1017.01 1017.67 1017.78
1019.56 1018.98 1018.37 1017.74 1017.11 1016.52 1016.00 1015.60 1015.32 1015.17 1014.96 1014.85 1014.92 1014.84 1014.13 1010.80 1008.47 1008.59 1008.70 1008.92 1008.93 1009.02 1009.27 1009.03 1009.06 1009.38 1009.14 1008.95 1008.26 1007.89 1007.75 1007.33 1007.12 1007.30 1009.52 1010.13 1013.48 1014.27 1014.90 1015.65 1016.27 1017.16 1017.88 1018.26 1018.54
1019.36 1018.73 1018.13 1017.50 1016.74 1016.06 1015.45 1014.97 1014.73 1014.60 1014.41 1014.35 1014.62 1014.41 1012.34 1008.73 1008.52 1008.90 1008.80 1008.44 1008.45 1008.40 1008.59 1008.21 1008.12 1008.34 1008.75 1008.67 1008.26 1008.25 1008.06 1008.07 1007.31 1007.57 1008.00 1009.10 1014.98 1015.78 1015.92 1015.72 1017.07 1017.60 1018.27 1018.67 1019.03
1019.39 1018.65 1017.89 1017.20 1016.44 1015.67 1014.90 1014.21 1013.94 1014.04 1014.07 1014.15 1014.39 1013.80 1011.18 1008.17 1008.30 1007.80 1008.05 1008.12 1007.94 1007.94 1007.85 1007.67 1007.87 1008.47 1008.81 1009.31 1009.45 1009.26 1009.07 1008.70 1008.16 1007.64 1008.65 1010.33 1015.17 1016.29 1016.72 1016.76 1017.46 1018.07 1018.65 1018.89 1019.18
1019.32 1018.54 1017.65 1016.86 1016.14 1015.38 1014.49 1013.60 1013.47 1013.64 1014.11 1014.00 1013.38 1013.18 1010.15 1008.21 1007.29 1007.13 1007.14 1007.54 1007.69 1007.89 1008.16 1008.23 1008.80 1009.22 1009.74 1010.10 1010.36 1009.76 1009.35 1008.71 1008.21 1008.25 1009.46 1011.82 1014.39 1016.18 1017.14 1017.45 1017.82 1018.61 1019.27 1019.53 1019.92
1019.16 1018.43 1017.52 1016.51 1015.81 1015.35 1014.59 1013.34 1013.67 1013.40 1012.91 1011.86 1010.99 1010.21 1008.76 1007.34 1006.85 1007.03 1006.96 1007.15 1007.58 1008.18 1008.70 1008.89 1009.65 1009.75 1009.46 1009.29 1009.23 1009.26 1008.88 1008.50 1007.98 1008.73 1010.19 1012.63 1014.72 1016.47 1017.53 1017.90 1017.97 1018.83 1019.45 1020.13 1020.38
1019.04 1018.15 1017.26 1016.16 1015.32 1014.93 1015.04 1013.88 1011.68 1011.18 1011.06 1009.99 1009.50 1008.92 1008.01 1007.54 1007.70 1006.87 1006.87 1007.63 1007.99 1008.59 1008.93 1009.60 1009.54 1008.70 1008.56 1008.46 1008.62 1008.19 1008.42 1008.55 1008.67 1009.43 1010.79 1014.00 1016.11 1017.37 1018.13 1018.25 1018.33 1018.96 1019.66 1020.25 1020.63
1018.86 1018.07 1017.14 1015.84 1014.69 1014.59 1014.02 1012.12 1010.11 1010.74 1010.84 1008.75 1007.90 1007.75 1007.27 1007.01 1007.01 1006.62 1006.98 1007.39 1008.12 1008.73 1008.97 1009.38 1008.14 1007.75 1007.92 1007.62 1007.75 1008.05 1008.32 1008.63 1009.32 1010.57 1012.28 1013.55 1016.92 1017.99 1018.58 1018.94 1019.19 1019.69 1019.99 1020.34 1020.36
1018.56 1017.75 1017.10 1015.87 1014.22 1014.25 1012.71 1010.36 1010.37 1010.64 1010.89 1008.38 1006.92 1006.13 1006.20 1006.30 1006.25 1006.02 1006.29 1007.08 1007.98 1008.33 1008.42 1008.40 1007.20 1007.58 1007.07 1007.33 1007.62 1008.20 1008.49 1008.72 1009.78 1011.02 1012.98 1013.29 1017.09 1018.55 1018.81 1019.14 1019.66 1019.94 1020.12 1020.48 1020.77
1018.25 1017.40 1016.90 1016.95 1015.66 1014.22 1011.21 1010.30 1009.93 1010.69 1010.44 1007.06 1006.06 1004.80 1005.47 1006.20 1005.99 1005.72 1005.78 1006.66 1007.43 1007.87 1008.13 1007.85 1007.06 1007.04 1007.33 1007.51 1007.63 1008.44 1008.43 1009.23 1010.07 1011.55 1012.81 1014.08 1015.75 1017.68 1019.06 1019.72 1020.01 1020.36 1020.57 1020.75 1020.53
1017.66 1016.82 1016.57 1015.71 1015.80 1012.24 1011.27 1010.93 1010.76 1011.18 1009.33 1006.64 1005.43 1005.37 1005.93 1006.14 1006.11 1006.08 1006.03 1006.23 1006.73 1007.44 1007.63 1007.58 1006.79 1006.97 1007.09 1007.34 1008.06 1008.59 1009.37 1010.46 1011.48 1012.62 1013.79 1013.89 1015.40 1017.93 1018.37 1018.75 1019.49 1019.93 1020.34 1020.58 1020.90
1016.87 1015.66 1016.14 1015.31 1012.89 1011.20 1011.30 1011.19 1011.81 1010.76 1008.10 1006.51 1005.75 1005.73 1006.07 1006.33 1006.49 1006.44 1006.56 1006.83 1007.47 1007.99 1008.34 1007.86 1007.33 1007.07 1007.07 1007.83 1008.63 1009.44 1011.04 1012.66 1014.06 1014.86 1015.28 1014.75 1015.97 1018.12 1018.00 1018.53 1019.05 1019.64 1020.29 1020.65 1020.78
1015.97 1014.49 1013.39 1012.71 1011.37 1011.61 1011.61 1011.94 1011.77 1009.42 1007.78 1005.97 1005.84 1006.02 1006.34 1006.24 1006.67 1006.71 1006.95 1007.49 1007.60 1008.21 1008.96 1008.84 1008.37 1007.72 1007.73 1008.39 1009.48 1010.47 1011.88 1013.72 1014.92 1016.06 1015.93 1015.76 1017.35 1018.22 1018.26 1018.21 1018.95 1019.60 1020.16 1020.66 1021.17
1015.23 1013.66 1012.91 1010.22 1010.91 1011.63 1012.10 1012.42 1010.88 1009.05 1007.18 1006.54 1005.78 1006.29 1006.46 1006.37 1006.49 1006.83 1007.08 1007.38 1007.62 1008.02 1008.86 1009.20 1009.23 1008.66 1008.32 1008.44 1009.36 1010.65 1012.00 1013.15 1014.75 1016.01 1016.79 1017.42 1018.40 1018.77 1019.02 1019.50 1019.77 1020.05 1020.31 1020.92 1021.46
1015.91 1014.38 1011.78 1009.03 1010.02 1011.16 1012.16 1012.07 1010.33 1008.40 1007.31 1006.64 1006.22 1006.14 1006.43 1006.12 1006.47 1006.84 1007.08 1006.94 1007.28 1007.46 1007.94 1009.42 1009.93 1009.68 1009.13 1009.21 1009.97 1010.62 1011.84 1013.60 1015.50 1017.00 1017.71 1017.70 1018.09 1018.35 1019.16 1019.62 1020.03 1020.36 1020.63 1021.02 1021.60
1015.99 1014.12 1009.68 1008.91 1009.66 1011.56 1012.40 1011.49 1009.68 1007.97 1007.28 1006.45 1006.15 1006.44 1006.64 1006.68 1006.33 1006.63 1007.15 1007.33 1007.26 1008.05 1008.19 1009.39 1010.61 1010.94 1010.26 1010.72 1010.94 1011.31 1012.41 1014.14 1015.83 1017.26 1018.03 1018.08 1017.73 1016.73 1017.54 1018.60 1019.34 1019.87 1020.44 1020.97 1021.78
1017.28 1014.57 1009.97 1009.52 1011.01 1011.92 1011.89 1010.54 1009.33 1008.00 1007.13 1006.15 1005.92 1006.00 1006.42 1006.65 1006.75 1006.85 1007.39 1007.39 1007.46 1007.87 1009.31 1010.31 1011.55 1012.19 1011.80 1011.15 1010.84 1011.40 1012.46 1014.08 1016.36 1017.58 1017.99 1018.07 1017.15 1016.46 1017.01 1017.79 1018.69 1019.57 1020.32 1021.16 1022.24
1018.83 1015.69 1010.57 1010.24 1011.73 1012.24 1011.41 1010.30 1009.11 1007.96 1007.13 1006.26 1006.03 1005.98 1006.24 1006.75 1007.20 1007.34 1007.87 1008.12 1007.93 1008.96 1009.80 1010.75 1012.32 1013.34 1012.96 1012.53 1011.75 1011.86 1012.47 1013.58 1015.40 1016.82 1017.83 1018.39 1017.43 1016.76 1017.17 1018.13 1019.00 1019.83 1020.79 1021.91 1023.07
1019.25 1016.77 1013.37 1012.23 1012.57 1012.55 1012.14 1010.53 1009.19 1007.44 1006.53 1006.11 1006.20 1006.26 1006.62 1006.95 1007.17 1007.93 1008.59 1009.23 1009.30 1009.73 1010.22 1010.81 1013.04 1013.70 1013.64 1013.09 1012.74 1012.51 1012.61 1013.32 1014.73 1016.48 1017.26 1017.51 1017.63 1017.86 1018.18 1018.62 1019.34 1020.45 1021.70 1022.98 1023.99
1019.12 1017.84 1016.58 1015.26 1013.97 1013.71 1012.73 1011.13 1009.75 1008.50 1007.27 1006.61 1006.54 1006.69 1007.03 1007.56 1007.65 1008.40 1009.18 1009.75 1010.10 1010.49 1011.09 1012.23 1013.81 1014.03 1013.87 1013.36 1012.88 1012.71 1012.66 1012.95 1013.96 1014.86 1016.17 1016.71 1017.36 1017.98 1018.53 1019.19 1020.09 1021.28 1022.36 1023.34 1024.24
1019.44 1019.20 1017.85 1016.68 1015.33 1014.26 1012.84 1011.81 1010.81 1009.57 1008.37 1007.63 1007.43 1006.97 1007.19 1007.65 1007.93 1008.70 1009.23 1010.16 1010.69 1011.30 1012.11 1013.16 1014.31 1014.45 1014.43 1013.71 1013.31 1012.88 1012.49 1012.59 1013.13 1014.01 1015.68 1016.49 1017.70 1018.25 1018.89 1019.46 1020.74 1021.76 1022.65 1023.63 1024.44
1020.56 1019.80 1019.35 1017.64 1016.45 1015.19 1014.35 1013.39 1011.89 1011.12 1009.10 1008.30 1007.84 1007.74 1007.71 1007.67 1007.57 1007.98 1008.64 1009.54 1010.24 1011.39 1012.81 1013.75 1014.72 1015.81 1015.64 1014.59 1013.98 1013.53 1012.51 1012.30 1012.95 1013.46 1015.24 1016.65 1017.23 1018.56 1019.58 1020.19 1021.06 1021.94 1022.71 1023.61 1024.50
Thickness
5712 5715 5717 5720 5722 5725 5728 5731 5734 5737 5740 5743 5746 5749 5754 5758 5765 5767 5769 5794 5799 5803 5806 5806 5805 5802 5803 5793 5800 5795 5752 5744 5758 5770 5782 5803 5793 5794 5796 5782 5774 5775 5774 5770 5769
5709 5712 5715 5718 5722 5725 5728 5730 5732 5735 5738 5740 5743 5747 5751 5755 5758 5765 5799 5801 5802 5803 5799 5793 5788 5791 5780 5785 5788 5772 5743 5762 5781 5790 5785 5797 5796 5788 5772 5770 5757 5762 5768 5769 5773
5706 5709 5711 5715 5720 5723 5727 5730 5732 5734 5736 5739 5742 5745 5749 5752 5755 5780 5806 5804 5802 5801 5800 5797 5793 5784 5774 5781 5782 5777 5760 5786 5792 5797 5797 5798 5794 5797 5768 5754 5762 5758 5761 5762 5758
5705 5707 5710 5714 5719 5722 5726 5729 5731 5733 5735 5737 5740 5744 5747 5750 5745 5793 5803 5800 5798 5798 5795 5791 5784 5772 5768 5769 5783 5771 5788 5790 5797 5804 5801 5797 5792 5780 5779 5769 5769 5760 5755 5753 5748
5702 5705 5709 5712 5716 5721 5724 5727 5730 5732 5734 5737 5740 5742 5745 5743 5756 5797 5797 5796 5794 5793 5787 5781 5774 5771 5759 5773 5779 5775 5788 5797 5804 5800 5796 5794 5777 5769 5756 5761 5762 5758 5751 5742 5738
5699 5703 5708 5712 5717 5721 5724 5727 5729 5731 5733 5736 5738 5739 5740 5734 5792 5796 5794 5790 5790 5787 5785 5778 5777 5780 5772 5774 5771 5789 5791 5796 5806 5801 5801 5772 5758 5767 5747 5756 5745 5740 5732 5729 5729
5699 5703 5708 5713 5718 5722 5726 5729 5731 5732 5734 5736 5737 5739 5738 5749 5792 5793 5793 5790 5792 5790 5780 5789 5790 5779 5781 5772 5791 5791 5786 5790 5797 5802 5774 5771 5733 5731 5742 5742 5734 5728 5723 5721 5720
5698 5702 5707 5712 5718 5724 5729 5732 5734 5735 5736 5737 5736 5737 5737 5786 5789 5786 5788 5789 5793 5794 5790 5796 5797 5788 5780 5785 5779 5772 5772 5754 5782 5791 5797 5775 5706 5725 5733 5733 5722 5721 5718 5717 5716
5694 5700 5706 5711 5718 5724 5730 5736 5739 5737 5736 5735 5734 5734 5738 5788 5778 5790 5790 5781 5788 5791 5794 5799 5792 5775 5773 5753 5739 5745 5734 5745 5757 5785 5781 5759 5710 5723 5727 5726 5720 5718 5715 5716 5712
5692 5697 5704 5711 5716 5723 5730 5738 5738 5738 5733 5734 5738 5727 5753 5760 5781 5788 5794 5788 5780 5779 5774 5774 5759 5748 5741 5730 5708 5729 5732 5748 5745 5767 5760 5737 5720 5718 5717 5716 5716 5712 5708 5706 5700
5689 5695 5702 5710 5715 5719 5726 5736 5730 5729 5735 5737 5744 5744 5759 5778 5788 5779 5787 5781 5776 5765 5743 5755 5735 5722 5739 5744 5746 5748 5748 5745 5760 5769 5752 5730 5716 5710 5708 5709 5711 5707 5701 5696 5691
5687 5694 5701 5710 5716 5718 5717 5725 5736 5744 5725 5750 5754 5756 5769 5774 5753 5769 5784 5757 5753 5734 5747 5734 5721 5748 5755 5754 5753 5759 5750 5747 5759 5763 5747 5717 5699 5699 5698 5701 5705 5700 5694 5689 5683
5683 5690 5697 5708 5717 5718 5720 5731 5750 5748 5718 5744 5757 5755 5761 5768 5753 5759 5768 5758 5744 5734 5735 5720 5745 5764 5758 5761 5753 5750 5745 5744 5746 5743 5733 5720 5687 5685 5692 5694 5694 5690 5688 5684 5682
5680 5687 5692 5702 5717 5714 5722 5745 5745 5745 5695 5725 5746 5759 5766 5768 5753 5777 5777 5761 5744 5733 5739 5732 5759 5754 5760 5751 5749 5725 5752 5751 5741 5727 5691 5729 5658 5671 5680 5682 5681 5680 5677 5675 5671
5675 5683 5688 5687 5695 5705 5732 5742 5745 5732 5663 5742 5748 5783 5771 5752 5759 5762 5781 5761 5737 5740 5746 5730 5749 5750 5736 5745 5753 5738 5757 5749 5746 5720 5714 5711 5678 5672 5671 5665 5667 5666 5667 5664 5666
5673 5682 5683 5689 5688 5717 5727 5732 5731 5682 5666 5731 5753 5746 5743 5747 5751 5757 5759 5769 5763 5745 5747 5741 5765 5753 5750 5755 5749 5753 5739 5723 5714 5703 5678 5712 5693 5661 5666 5668 5665 5668 5665 5662 5657
5672 5684 5680 5685 5702 5719 5721 5718 5674 5662 5726 5730 5731 5739 5734 5732 5737 5741 5736 5733 5718 5712 5712 5729 5738 5754 5756 5736 5736 5726 5697 5663 5667 5660 5661 5698 5678 5655 5671 5671 5669 5663 5658 5653 5652
5672 5686 5695 5700 5712 5710 5709 5686 5664 5699 5711 5746 5737 5734 5721 5732 5729 5733 5726 5716 5731 5725 5701 5697 5694 5734 5748 5731 5715 5713 5695 5655 5657 5648 5664 5682 5651 5652 5668 5672 5665 5660 5652 5648 5641
5670 5685 5692 5713 5709 5703 5687 5656 5671 5696 5726 5720 5733 5715 5714 5730 5731 5726 5720 5718 5729 5730 5699 5694 5698 5731 5736 5739 5727 5712 5689 5696 5668 5666 5655 5650 5651 5657 5655 5651 5651 5646 5645 5639 5632
5654 5668 5687 5715 5710 5695 5668 5662 5684 5714 5721 5720 5710 5719 5705 5720 5718 5717 5714 5735 5727 5738 5735 5714 5688 5718 5727 5728 5723 5714 5711 5670 5648 5644 5649 5647 5642 5638 5643 5642 5641 5638 5636 5632 5626
5646 5662 5699 5709 5704 5674 5653 5664 5692 5716 5719 5715 5713 5709 5713 5712 5721 5713 5715 5727 5734 5726 5732 5719 5695 5695 5711 5696 5691 5688 5680 5670 5658 5642 5628 5625 5634 5662 5657 5646 5639 5636 5633 5629 5620
5623 5647 5692 5696 5661 5656 5657 5680 5698 5701 5711 5720 5722 5720 5715 5716 5713 5715 5710 5720 5735 5732 5709 5712 5683 5672 5691 5703 5709 5700 5689 5663 5627 5643 5635 5623 5623 5662 5654 5649 5642 5635 5631 5622 5611
5600 5625 5677 5679 5642 5646 5663 5678 5688 5691 5697 5711 5712 5720 5721 5714 5702 5709 5708 5720 5726 5715 5704 5703 5669 5647 5660 5673 5691 5686 5689 5675 5648 5633 5633 5613 5624 5655 5651 5643 5636 5628 5621 5608 5593
5593 5615 5642 5653 5649 5651 5650 5666 5676 5699 5702 5710 5710 5713 5705 5703 5712 5697 5698 5703 5710 5704 5702 5699 5666 5655 5638 5658 5670 5671 5679 5675 5649 5610 5631 5628 5631 5638 5636 5634 5625 5614 5599 5588 5576
5588 5606 5618 5614 5631 5633 5645 5661 5668 5672 5691 5699 5698 5700 5696 5688 5695 5683 5689 5693 5697 5697 5694 5680 5659 5668 5666 5670 5672 5669 5667 5669 5659 5650 5626 5635 5631 5629 5625 5620 5613 5600 5589 5578 5565
5579 5581 5593 5603 5617 5628 5640 5646 5647 5660 5676 5678 5679 5690 5692 5683 5688 5677 5681 5679 5677 5686 5682 5671 5648 5663 5656 5665 5663 5660 5667 5665 5668 5661 5632 5630 5620 5625 5619 5615 5606 5594 5584 5571 5560
5558 5567 5572 5591 5602 5614 5615 5625 5640 5645 5669 5677 5679 5674 5674 5685 5694 5696 5694 5686 5682 5672 5661 5659 5645 5629 5631 5653 5650 5632 5658 5662 5661 5660 5634 5618 5625 5620 5612 5610 5597 5587 5579 5567 5555